sat.trackr.live / text

‹ back to catalog

STARLINK-35573

NORAD 66116 · 2025-237C

PAYLOAD ACTIVE UNKNOWN

§ Identity

Operator
Country
US
Launch date
2025-10-22
Launch site
AFWTR
Launch vehicle
Mass (kg)
RCS (m²)

Purposes: comms

External: N2YO · Heavens-Above · Gunter

§ Orbital elements

Epoch: 2026-09-20T13:50:09.368448Z

Period
93.85 min
Inclination
53.1588°
Eccentricity
0.0001470
Mean motion
15.34407539 rev/d
Perigee alt
461.7 km
Apogee alt
463.7 km
Semi-major
6,840.8 km
B*
5.1624e-4
RAAN
211.2017°
Arg perigee
85.0901°
Mean anomaly
275.0269°
Rev number
5,249

§ Raw data

STARLINK-355731 66116U 25237C   26263.57649732  .00017110  00000+0  51624-3 0  99912 66116  53.1588 211.2017 0001470  85.0901 275.0269 15.34407539 52493

JSON: /api/v1/satellites/66116 · /tle

For live sub-satellite position, see the globe view (requires WebGL).

§ Visibility from observer

Set your observer location to see the next 7 days of passes ≥ 10°. The values pass through the URL so the page stays shareable.

No JS? Fill the form by hand. The geolocation button needs JavaScript.